Home   Weather   Francistown   Past weeks

Flag for Botswana Past Weather in Francistown, Botswana — Yesterday and Last 2 Weeks

Now
48 °F

Sunny.


Feels Like: 46 °F
Forecast: 49 / 68 °F
Wind: 6 mph from Southeast

Location: Francistown Airport

Current Time: Jul 28, 2017 at 9:08:19 am

Latest Report: Jul 28, 2017 at 8:00 am


Visibility: 10 mi

Pressure: 30.42 "Hg (26.99 "Hg at 989m altitude)

Humidity: 87%

Dew Point: 45 °F

Location of FrancistownLocation

Past Weather in Francistown — Graph

°F

Francistown Temperature Yesterday

Maximum temperature yesterday: 72 °F (at 2:00 pm)
Minimum temperature yesterday: 52 °F (at 6:00 am)
Average temperature yesterday: 63 °F

High & Low Weather Summary for the Past Weeks

 TemperatureHumidityPressure
High95 °F (Jul 15, 5:00 pm)100% (Jul 18, 7:00 am)30.45 "Hg (Jul 18, 7:00 am)
Low34 °F (Jul 17, 7:00 am)12% (Jul 15, 5:00 pm)30.09 "Hg (Jul 16, 3:00 pm)
Average64 °F43%30.24 "Hg
* Reported Jul 13 8:00 am — Jul 28 8:00 am, Francistown. Weather by CustomWeather, © 2017

Note: Actual official high and low records may vary slightly from our data, if they occured in-between our weather recording intervals... More about our weather records

Advertising

Francistown Weather History for the Previous 24 Hours

Scroll right to see more
 ConditionsComfort  
Time TempWeatherWind HumidityBarometerVisibility
8:00 am
Fri, Jul 28
48 °FSunny.6 mph87%30.42 "Hg10 mi
7:00 am34 °FSunny.3 mph93%30.39 "Hg10 mi
6:00 am36 °FClear.2 mph93%30.39 "Hg10 mi
9:00 pm
Thu, Jul 27
54 °FClear.6 mph63%30.36 "Hg10 mi
8:00 pm55 °FClear.6 mph63%30.36 "Hg10 mi
7:00 pm61 °FClear.7 mph52%30.36 "Hg10 mi
6:00 pm66 °FClear.13 mph40%30.33 "Hg10 mi
5:00 pm70 °FPassing clouds.14 mph35%30.30 "HgN/A
4:00 pm70 °FPassing clouds.17 mph35%30.30 "HgN/A
3:00 pm72 °FSunny.16 mph36%30.33 "Hg10 mi
2:00 pm72 °FPassing clouds.16 mph36%30.33 "HgN/A
1:00 pm70 °FSunny.17 mph38%30.36 "Hg10 mi
12:00 pm70 °FPassing clouds.14 mph40%30.39 "HgN/A
11:00 am66 °FPassing clouds.17 mph46%30.39 "HgN/A
10:00 am64 °FSunny.17 mph49%30.42 "Hg10 mi
9:00 am61 °FSunny.15 mph59%30.39 "Hg10 mi
Weather by CustomWeather, © 2017

See weather overviewHow to use our weather pages